Weather History for KHFD - April, 2013

Change the Weather History Date:

Wednesday, April 24, 2013

  Actual Average Record
Temperature  
Mean Temperature 56 °F -  
Max Temperature 71 °F 62 °F 83 °F (1973)
Min Temperature 43 °F 40 °F 27 °F (1930)
Degree Days  
Heating Degree Days 8    
Growing Degree Days 6 (Base 50)    
Moisture  
Dew Point 43 °F    
Average Humidity 69    
Maximum Humidity 86    
Minimum Humidity 38    
Precipitation  
Precipitation 0.00 in - - ()
Sea Level Pressure  
Sea Level Pressure 29.95 in    
Wind  
Wind Speed 9 mph (SSW)    
Max Wind Speed 15 mph    
Max Gust Speed 23 mph    
Visibility 10 miles    
Events      
Averages and records for this station are not official NWS values.
T = Trace of Precipitation, MM = Missing Value Source: NWS Daily Summary

Daily Weather History Graph

Daily Weather History Graph

Search for Another Location

Airport or City:

Trip Planner

Search our weather history database for the weather conditions in past years. The results will help you decide how hot, cold, wet, or windy it might be!

Date:

Astronomy

Apr. 24, 2013 Rise Set
Actual Time 5:56 AM EDT 7:41 PM EDT
Civil Twilight 5:26 AM EDT 8:11 PM EDT
Nautical Twilight 4:51 AM EDT 8:47 PM EDT
Astronomical Twilight 4:12 AM EDT 9:26 PM EDT
Moon 6:41 PM EDT (4/24) 4:59 AM EDT (4/24)
Length of Visible Light 14h 44m
Length of Day
13h 44m
Waxing Gibbous, 98% of the Moon is Illuminated
Apr 24
Waxing Gibbous
Apr 25
Full
May 2
Last Quarter
May 9
New
May 18
First Quarter

Hourly Weather History & Observations

Time (EDT) Temp. Windchill Dew Point Humidity Pressure Visibility Wind Dir Wind Speed Gust Speed Precip Events Conditions
12:53 AM 43.0 °F 38.2 °F 37.9 °F 82% 30.08 in 10.0 mi North 8.1 mph - N/A   Overcast
1:53 AM 43.0 °F 37.2 °F 37.9 °F 82% 30.07 in 10.0 mi North 10.4 mph - N/A   Overcast
2:53 AM 43.0 °F 37.2 °F 39.0 °F 86% 30.04 in 10.0 mi North 10.4 mph - N/A   Overcast
3:53 AM 44.1 °F 37.7 °F 39.0 °F 82% 30.02 in 10.0 mi North 12.7 mph - N/A   Overcast
4:53 AM 44.1 °F 38.6 °F 39.0 °F 82% 30.03 in 10.0 mi NNW 10.4 mph 18.4 mph N/A   Overcast
6:53 AM 45.0 °F 39.7 °F 39.9 °F 82% 30.04 in 10.0 mi NNW 10.4 mph - N/A   Overcast
7:53 AM 46.0 °F 43.1 °F 39.9 °F 79% 30.05 in 10.0 mi Variable 5.8 mph - N/A   Overcast
8:53 AM 48.0 °F - 41.0 °F 77% 30.03 in 10.0 mi NNW 4.6 mph - N/A   Overcast
9:16 AM 48.2 °F - 41.0 °F 76% 30.02 in 10.0 mi North 5.8 mph - N/A   Mostly Cloudy
9:25 AM 50.0 °F - 42.8 °F 76% 30.02 in 10.0 mi NNE 4.6 mph - N/A   Partly Cloudy
9:53 AM 52.0 °F - 42.1 °F 69% 30.01 in 10.0 mi North 4.6 mph - N/A   Clear
10:53 AM 55.9 °F - 43.0 °F 62% 29.99 in 10.0 mi SSE 4.6 mph - N/A   Clear
11:53 AM 62.1 °F - 45.0 °F 53% 29.95 in 10.0 mi SE 6.9 mph - N/A   Clear
12:53 PM 66.9 °F - 44.1 °F 44% 29.91 in 10.0 mi South 6.9 mph - N/A   Clear
1:53 PM 69.1 °F - 42.1 °F 38% 29.87 in 10.0 mi SSW 8.1 mph - N/A   Clear
2:53 PM 70.0 °F - 44.1 °F 39% 29.86 in 10.0 mi SSW 11.5 mph 19.6 mph N/A   Clear
3:53 PM 69.1 °F - 44.1 °F 40% 29.85 in 10.0 mi SSW 10.4 mph 20.7 mph N/A   Clear
4:53 PM 68.0 °F - 46.0 °F 45% 29.83 in 10.0 mi South 13.8 mph 21.9 mph N/A   Clear
5:53 PM 64.0 °F - 46.0 °F 52% 29.85 in 10.0 mi South 15.0 mph 23.0 mph N/A   Clear
6:53 PM 60.1 °F - 46.0 °F 60% 29.85 in 10.0 mi South 13.8 mph 21.9 mph N/A   Clear
7:53 PM 57.0 °F - 46.9 °F 69% 29.85 in 10.0 mi South 13.8 mph - N/A   Clear
8:51 PM 51.8 °F - 46.4 °F 82% 29.90 in 10.0 mi SSW 9.2 mph - N/A   Mostly Cloudy
8:53 PM 52.0 °F - 46.9 °F 83% 29.90 in 10.0 mi South 13.8 mph - N/A   Mostly Cloudy
9:53 PM 51.1 °F - 46.9 °F 86% 29.89 in 10.0 mi Variable 5.8 mph - N/A   Overcast
10:53 PM 52.0 °F - 48.0 °F 86% 29.89 in 10.0 mi South 10.4 mph - N/A   Overcast
11:53 PM 52.0 °F - 48.0 °F 86% 29.87 in 10.0 mi South 10.4 mph - N/A   Overcast